OMS227 OOMS-OKKK

Flight info

Callsign OMS227
Flight time 1h 50m
Altitude 36000
Route MCT N718 ITRAX/N0476F340 P899 ROVOS G462 TUMAK M600 KUMBO/N0420F240 A453 DEBTI
Aircraft A20N/M-SDE2E3FGHIRWXY/LB1

Departure

Time 2026-05-01 11:07
Airport Muscat International Airport (OOMS)

Arrival

Time 2026-05-01 12:58
Airport Kuwait International Airport (OKKK)
Time Latitude Longitude Altitude Speed Heading
2026-05-01 09:28 23.60413 58.28575 34 ft 0 kts 85°
2026-05-01 10:53 23.60413 58.28573 34 ft 1 kts 85°
2026-05-01 10:53 23.60412 58.28564 34 ft 1 kts 85°
2026-05-01 10:53 23.60411 58.28556 34 ft 1 kts 85°
2026-05-01 10:54 23.60411 58.28547 34 ft 1 kts 85°
2026-05-01 10:54 23.60410 58.28538 34 ft 1 kts 85°
2026-05-01 10:54 23.60409 58.28529 34 ft 1 kts 85°
2026-05-01 10:54 23.60409 58.28521 34 ft 1 kts 85°
2026-05-01 10:55 23.60408 58.28512 34 ft 1 kts 85°
2026-05-01 10:55 23.60407 58.28504 34 ft 1 kts 85°
2026-05-01 10:55 23.60407 58.28495 34 ft 1 kts 85°
2026-05-01 10:55 23.60406 58.28486 34 ft 1 kts 82°
2026-05-01 10:56 23.60405 58.28478 34 ft 1 kts 71°
2026-05-01 10:56 23.60402 58.28470 31 ft 1 kts 59°
2026-05-01 10:56 23.60398 58.28463 32 ft 1 kts 47°
2026-05-01 10:56 23.60392 58.28456 33 ft 1 kts 35°
2026-05-01 10:57 23.60386 58.28451 30 ft 1 kts 23°
2026-05-01 10:57 23.60378 58.28448 30 ft 1 kts 11°
2026-05-01 10:57 23.60372 58.28447 34 ft 0 kts
2026-05-01 11:01 23.60388 58.28446 34 ft 5 kts 356°
2026-05-01 11:02 23.60435 58.28442 34 ft 8 kts 355°
2026-05-01 11:02 23.60494 58.28437 34 ft 9 kts
2026-05-01 11:02 23.60539 58.28471 33 ft 7 kts 64°
2026-05-01 11:02 23.60550 58.28525 34 ft 8 kts 83°
2026-05-01 11:03 23.60555 58.28592 34 ft 10 kts 86°
2026-05-01 11:03 23.60561 58.28673 32 ft 12 kts 85°
2026-05-01 11:03 23.60570 58.28778 34 ft 16 kts 84°
2026-05-01 11:03 23.60580 58.28910 34 ft 19 kts 85°
2026-05-01 11:04 23.60591 58.29062 34 ft 21 kts 85°
2026-05-01 11:04 23.60607 58.29225 34 ft 21 kts 83°
2026-05-01 11:04 23.60619 58.29387 33 ft 23 kts 84°
2026-05-01 11:04 23.60628 58.29494 33 ft 14 kts 85°
2026-05-01 11:05 23.60642 58.29579 33 ft 11 kts 61°
2026-05-01 11:05 23.60713 58.29607 33 ft 7 kts 356°
2026-05-01 11:05 23.60773 58.29601 33 ft 10 kts 355°
2026-05-01 11:05 23.60851 58.29592 33 ft 12 kts 346°
2026-05-01 11:06 23.60889 58.29520 33 ft 12 kts 271°
2026-05-01 11:06 23.60888 58.29479 33 ft 0 kts 265°
2026-05-01 11:07 23.60846 58.28952 35 ft 97 kts 264°
2026-05-01 11:07 23.60770 58.27997 32 ft 152 kts 264°
2026-05-01 11:07 23.60632 58.26753 373 ft 169 kts 266°
2026-05-01 11:07 23.60525 58.25472 885 ft 164 kts 270°
2026-05-01 11:08 23.60486 58.24695 1185 ft 151 kts 272°
2026-05-01 11:08 23.60419 58.23173 1889 ft 150 kts 271°
2026-05-01 11:08 23.60276 58.20848 2695 ft 174 kts 269°
2026-05-01 11:09 23.60167 58.19414 2861 ft 205 kts 267°
2026-05-01 11:09 23.60028 58.17768 2966 ft 231 kts 266°
2026-05-01 11:09 23.59867 58.15935 3273 ft 254 kts 266°
2026-05-01 11:10 23.59518 58.11971 4720 ft 264 kts 265°
2026-05-01 11:10 23.59345 58.09971 5563 ft 265 kts 265°
2026-05-01 11:10 23.59172 58.07970 6455 ft 263 kts 265°
2026-05-01 11:10 23.59000 58.05970 7211 ft 267 kts 264°
2026-05-01 11:11 23.58827 58.03952 8011 ft 268 kts 264°
2026-05-01 11:11 23.58771 58.01907 8786 ft 272 kts 271°
2026-05-01 11:11 23.58863 57.99848 9593 ft 274 kts 271°
2026-05-01 11:11 23.58910 57.97761 10290 ft 279 kts 269°
2026-05-01 11:12 23.58921 57.95568 10560 ft 300 kts 269°
2026-05-01 11:12 23.58927 57.93204 10763 ft 322 kts 269°
2026-05-01 11:12 23.58941 57.90712 11168 ft 335 kts 269°
2026-05-01 11:12 23.58962 57.88172 11890 ft 337 kts 269°
2026-05-01 11:13 23.58985 57.85613 12630 ft 340 kts 269°
2026-05-01 11:13 23.59008 57.83182 13281 ft 343 kts 269°
2026-05-01 11:13 23.59025 57.80563 13950 ft 347 kts 269°
2026-05-01 11:13 23.59026 57.77930 14628 ft 348 kts 269°
2026-05-01 11:14 23.59022 57.75294 15301 ft 350 kts 268°
2026-05-01 11:14 23.59018 57.72627 15937 ft 352 kts 268°
2026-05-01 11:14 23.59015 57.69971 16584 ft 354 kts 268°
2026-05-01 11:14 23.59013 57.67284 17192 ft 357 kts 268°
2026-05-01 11:15 23.59011 57.64571 17793 ft 360 kts 268°
2026-05-01 11:15 23.59009 57.61820 18283 ft 364 kts 268°
2026-05-01 11:15 23.59007 57.59054 18841 ft 365 kts 268°
2026-05-01 11:15 23.59004 57.56281 19354 ft 367 kts 268°
2026-05-01 11:16 23.59001 57.53489 19875 ft 370 kts 268°
2026-05-01 11:16 23.58998 57.50709 20390 ft 372 kts 268°
2026-05-01 11:16 23.58994 57.47884 20932 ft 374 kts 268°
2026-05-01 11:16 23.58989 57.45034 21446 ft 377 kts 268°
2026-05-01 11:17 23.58984 57.42167 21955 ft 379 kts 268°
2026-05-01 11:17 23.58980 57.40228 22311 ft 381 kts 268°
2026-05-01 11:17 23.58971 57.36382 22973 ft 385 kts 268°
2026-05-01 11:17 23.58964 57.33453 23450 ft 388 kts 268°
2026-05-01 11:18 23.58956 57.30513 23886 ft 389 kts 268°
2026-05-01 11:18 23.58947 57.27548 24320 ft 391 kts 268°
2026-05-01 11:18 23.58940 57.25550 24620 ft 392 kts 268°
2026-05-01 11:18 23.58931 57.22605 24994 ft 395 kts 268°
2026-05-01 11:19 23.58920 57.19562 25371 ft 397 kts 268°
2026-05-01 11:19 23.58910 57.16589 25743 ft 399 kts 269°
2026-05-01 11:19 23.59092 57.13577 26122 ft 402 kts 276°
2026-05-01 11:19 23.59648 57.10579 26548 ft 404 kts 282°
2026-05-01 11:20 23.60471 57.07889 26859 ft 409 kts 289°
2026-05-01 11:20 23.61396 57.05622 27136 ft 411 kts 291°
2026-05-01 11:20 23.62573 57.02764 27397 ft 414 kts 290°
2026-05-01 11:20 23.63732 56.99897 27765 ft 414 kts 290°
2026-05-01 11:21 23.64897 56.97010 28124 ft 415 kts 290°
2026-05-01 11:21 23.66061 56.94124 28384 ft 418 kts 290°
2026-05-01 11:21 23.67239 56.91208 28763 ft 418 kts 290°
2026-05-01 11:21 23.68413 56.88305 29085 ft 419 kts 290°
2026-05-01 11:22 23.69592 56.85388 29318 ft 422 kts 291°
2026-05-01 11:22 23.70749 56.82525 29575 ft 425 kts 290°
2026-05-01 11:22 23.71942 56.79572 29883 ft 425 kts 290°
2026-05-01 11:22 23.73135 56.76616 30057 ft 428 kts 290°
2026-05-01 11:23 23.74335 56.73631 30235 ft 430 kts 290°
2026-05-01 11:23 23.75539 56.70645 30481 ft 430 kts 290°
2026-05-01 11:23 23.76750 56.67650 30671 ft 431 kts 290°
2026-05-01 11:23 23.77956 56.64658 30917 ft 432 kts 290°
2026-05-01 11:24 23.79163 56.61656 31220 ft 432 kts 290°
2026-05-01 11:24 23.80372 56.58647 31548 ft 431 kts 290°
2026-05-01 11:24 23.82771 56.52674 32281 ft 428 kts 290°
2026-05-01 11:25 23.83967 56.49688 32593 ft 429 kts 290°
2026-05-01 11:25 23.86339 56.43770 33268 ft 426 kts 290°
2026-05-01 11:25 23.87542 56.40769 33558 ft 426 kts 290°
2026-05-01 11:26 23.88713 56.37841 33795 ft 426 kts 290°
2026-05-01 11:26 23.91085 56.31914 34230 ft 426 kts 290°
2026-05-01 11:26 23.92282 56.28912 34418 ft 425 kts 290°
2026-05-01 11:27 23.93445 56.25997 34678 ft 424 kts 290°
2026-05-01 11:27 23.94755 56.23103 34917 ft 426 kts 295°
2026-05-01 11:27 23.96167 56.20626 35136 ft 428 kts 300°
2026-05-01 11:27 23.97395 56.18665 35256 ft 428 kts 299°
2026-05-01 11:28 23.99064 56.15970 35472 ft 427 kts 299°
2026-05-01 11:28 24.00720 56.13279 35646 ft 428 kts 299°
2026-05-01 11:28 24.02379 56.10583 35815 ft 428 kts 299°
2026-05-01 11:29 24.07347 56.02500 35870 ft 426 kts 299°
2026-05-01 11:30 24.12304 55.94431 35856 ft 426 kts 299°
2026-05-01 11:30 24.15609 55.89046 35859 ft 426 kts 299°
2026-05-01 11:31 24.18884 55.83644 35854 ft 424 kts 296°
2026-05-01 11:31 24.21504 55.77902 35855 ft 419 kts 288°
2026-05-01 11:32 24.23237 55.71861 35858 ft 416 kts 281°
2026-05-01 11:32 24.24727 55.65737 35856 ft 416 kts 282°
2026-05-01 11:33 24.26221 55.59611 35857 ft 416 kts 281°
2026-05-01 11:33 24.27443 55.53426 35865 ft 415 kts 278°
2026-05-01 11:34 24.28587 55.47229 35864 ft 415 kts 278°
2026-05-01 11:34 24.29790 55.41100 35860 ft 416 kts 282°
2026-05-01 11:35 24.31766 55.35108 35847 ft 420 kts 291°
2026-05-01 11:35 24.34670 55.29568 35843 ft 424 kts 298°
2026-05-01 11:36 24.37920 55.24165 35829 ft 424 kts 298°
2026-05-01 11:36 24.41145 55.18763 35836 ft 423 kts 298°
2026-05-01 11:37 24.44361 55.13352 35830 ft 423 kts 298°
2026-05-01 11:37 24.47577 55.07933 35829 ft 423 kts 298°
2026-05-01 11:38 24.50783 55.02529 35825 ft 423 kts 298°
2026-05-01 11:38 24.53992 54.97115 35828 ft 422 kts 297°
2026-05-01 11:39 24.57190 54.91715 35820 ft 422 kts 297°
2026-05-01 11:39 24.60370 54.86296 35809 ft 421 kts 296°
2026-05-01 11:40 24.63394 54.80789 35833 ft 420 kts 295°
2026-05-01 11:40 24.66400 54.75287 35830 ft 420 kts 296°
2026-05-01 11:41 24.69145 54.70296 35837 ft 420 kts 296°
2026-05-01 11:41 24.72096 54.64936 35817 ft 420 kts 296°
2026-05-01 11:42 24.75090 54.59489 35819 ft 420 kts 296°
2026-05-01 11:42 24.78128 54.53952 35835 ft 420 kts 295°
2026-05-01 11:43 24.81129 54.48479 35827 ft 420 kts 295°
2026-05-01 11:43 24.84140 54.42980 35825 ft 420 kts 295°
2026-05-01 11:44 24.88726 54.34757 35824 ft 421 kts 297°
2026-05-01 11:44 24.91864 54.29326 35823 ft 420 kts 296°
2026-05-01 11:45 24.94990 54.23878 35845 ft 420 kts 296°
2026-05-01 11:45 24.98101 54.18434 35836 ft 420 kts 296°
2026-05-01 11:46 25.01208 54.12988 35831 ft 420 kts 296°
2026-05-01 11:46 25.04315 54.07536 35832 ft 419 kts 296°
2026-05-01 11:47 25.07413 54.02093 35829 ft 419 kts 296°
2026-05-01 11:47 25.10504 53.96657 35826 ft 419 kts 296°
2026-05-01 11:48 25.13599 53.91209 35835 ft 419 kts 296°
2026-05-01 11:48 25.16683 53.85771 35832 ft 418 kts 296°
2026-05-01 11:49 25.19927 53.80424 35830 ft 423 kts 302°
2026-05-01 11:49 25.23972 53.75621 35826 ft 431 kts 311°
2026-05-01 11:50 25.28576 53.71339 35820 ft 433 kts 313°
2026-05-01 11:50 25.33178 53.67072 35828 ft 433 kts 312°
2026-05-01 11:51 25.37792 53.62789 35827 ft 433 kts 312°
2026-05-01 11:51 25.42404 53.58509 35823 ft 433 kts 312°
2026-05-01 11:52 25.46986 53.54254 35823 ft 433 kts 312°
2026-05-01 11:52 25.51592 53.49976 35832 ft 433 kts 312°
2026-05-01 11:53 25.56174 53.45715 35826 ft 433 kts 312°
2026-05-01 11:53 25.60784 53.41423 35825 ft 433 kts 312°
2026-05-01 11:54 25.65320 53.37073 35825 ft 431 kts 310°
2026-05-01 11:54 25.69802 53.32661 35822 ft 431 kts 310°
2026-05-01 11:55 25.74290 53.28262 35826 ft 431 kts 310°
2026-05-01 11:55 25.78774 53.23875 35823 ft 431 kts 310°
2026-05-01 11:56 25.82936 53.19186 35817 ft 420 kts 301°
2026-05-01 11:56 25.86080 53.13831 35821 ft 410 kts 290°
2026-05-01 11:57 25.88065 53.09040 35820 ft 407 kts 288°
2026-05-01 11:57 25.90786 53.02374 35818 ft 407 kts 288°
2026-05-01 11:58 25.93116 52.96649 35818 ft 407 kts 288°
2026-05-01 11:59 25.96608 52.88037 35818 ft 408 kts 288°
2026-05-01 11:59 25.98934 52.82290 35825 ft 408 kts 288°
2026-05-01 12:00 26.02373 52.73790 35857 ft 409 kts 288°
2026-05-01 12:01 26.06219 52.65286 35845 ft 411 kts 290°
2026-05-01 12:01 26.08796 52.59620 35840 ft 410 kts 290°
2026-05-01 12:02 26.11346 52.53956 35842 ft 410 kts 290°
2026-05-01 12:02 26.13848 52.48399 35831 ft 409 kts 290°
2026-05-01 12:03 26.16402 52.42738 35835 ft 409 kts 290°
2026-05-01 12:03 26.18950 52.37078 35848 ft 409 kts 289°
2026-05-01 12:04 26.21492 52.31422 35841 ft 408 kts 289°
2026-05-01 12:04 26.23971 52.25791 35841 ft 407 kts 288°
2026-05-01 12:05 26.26416 52.20108 35836 ft 407 kts 288°
2026-05-01 12:05 26.30107 52.11552 35831 ft 406 kts 288°
2026-05-01 12:06 26.32542 52.05914 35839 ft 406 kts 288°
2026-05-01 12:06 26.34591 52.01171 35837 ft 406 kts 288°
2026-05-01 12:07 26.37038 51.95500 35840 ft 405 kts 288°
2026-05-01 12:07 26.39088 51.89708 35838 ft 401 kts 284°
2026-05-01 12:08 26.41046 51.83879 35837 ft 401 kts 284°
2026-05-01 12:08 26.42982 51.78122 35835 ft 401 kts 284°
2026-05-01 12:09 26.44935 51.72297 35856 ft 402 kts 283°
2026-05-01 12:09 26.46891 51.66450 35853 ft 402 kts 283°
2026-05-01 12:10 26.49813 51.57690 35859 ft 402 kts 283°
2026-05-01 12:11 26.52728 51.48924 35855 ft 402 kts 283°
2026-05-01 12:11 26.54669 51.43076 35858 ft 402 kts 283°
2026-05-01 12:12 26.56610 51.37219 35888 ft 402 kts 283°
2026-05-01 12:12 26.58537 51.31394 35873 ft 402 kts 283°
2026-05-01 12:13 26.60475 51.25536 35869 ft 402 kts 283°
2026-05-01 12:13 26.62425 51.19652 35869 ft 401 kts 283°
2026-05-01 12:14 26.64347 51.13842 35867 ft 401 kts 283°
2026-05-01 12:14 26.66274 51.08001 35864 ft 400 kts 283°
2026-05-01 12:15 26.68197 51.02168 35864 ft 400 kts 283°
2026-05-01 12:15 26.70096 50.96313 35882 ft 399 kts 283°
2026-05-01 12:16 26.71953 50.90484 35871 ft 398 kts 283°
2026-05-01 12:16 26.73744 50.84870 35871 ft 398 kts 283°
2026-05-01 12:17 26.75600 50.79052 35860 ft 397 kts 283°
2026-05-01 12:17 26.77456 50.73232 35866 ft 396 kts 283°
2026-05-01 12:18 26.79302 50.67428 35865 ft 396 kts 283°
2026-05-01 12:18 26.81185 50.61631 35874 ft 397 kts 284°
2026-05-01 12:19 26.83158 50.55882 35873 ft 397 kts 284°
2026-05-01 12:19 26.85129 50.50111 35876 ft 396 kts 284°
2026-05-01 12:20 26.87189 50.44378 35870 ft 400 kts 288°
2026-05-01 12:20 26.89939 50.38960 35872 ft 406 kts 293°
2026-05-01 12:21 26.92906 50.33577 35872 ft 406 kts 293°
2026-05-01 12:21 26.95859 50.28192 35885 ft 406 kts 293°
2026-05-01 12:22 26.98821 50.22791 35887 ft 406 kts 293°
2026-05-01 12:22 27.01771 50.17408 35889 ft 405 kts 293°
2026-05-01 12:23 27.04810 50.12077 35890 ft 410 kts 297°
2026-05-01 12:23 27.08483 50.07099 35917 ft 415 kts 301°
2026-05-01 12:24 27.12224 50.02186 35900 ft 414 kts 301°
2026-05-01 12:24 27.15960 49.97265 35897 ft 414 kts 301°
2026-05-01 12:25 27.21530 49.89928 35896 ft 413 kts 301°
2026-05-01 12:26 27.25251 49.85020 35892 ft 413 kts 301°
2026-05-01 12:26 27.30827 49.77654 35891 ft 412 kts 301°
2026-05-01 12:27 27.36390 49.70294 35892 ft 411 kts 301°
2026-05-01 12:28 27.41944 49.62932 35905 ft 411 kts 301°
2026-05-01 12:29 27.47542 49.55627 35901 ft 415 kts 304°
2026-05-01 12:29 27.54279 49.49208 35510 ft 424 kts 311°
2026-05-01 12:30 27.58879 49.45087 35072 ft 421 kts 311°
2026-05-01 12:30 27.61160 49.43039 34720 ft 422 kts 311°
2026-05-01 12:30 27.63466 49.40965 34068 ft 425 kts 311°
2026-05-01 12:31 27.65785 49.38875 33092 ft 431 kts 312°
2026-05-01 12:31 27.68118 49.36776 32365 ft 430 kts 312°
2026-05-01 12:31 27.70405 49.34723 31634 ft 429 kts 313°
2026-05-01 12:31 27.72749 49.32615 30824 ft 430 kts 313°
2026-05-01 12:32 27.75093 49.30504 30075 ft 430 kts 314°
2026-05-01 12:32 27.79729 49.26332 28977 ft 418 kts 314°
2026-05-01 12:32 27.81976 49.24313 28498 ft 410 kts 314°
2026-05-01 12:33 27.84195 49.22314 27991 ft 404 kts 314°
2026-05-01 12:33 27.86380 49.20346 27477 ft 399 kts 315°
2026-05-01 12:33 27.88646 49.18576 27000 ft 400 kts 321°
2026-05-01 12:33 27.91050 49.17006 26501 ft 396 kts 322°
2026-05-01 12:34 27.93396 49.15474 25961 ft 393 kts 322°
2026-05-01 12:34 27.95744 49.13933 25513 ft 388 kts 322°
2026-05-01 12:34 27.98087 49.12394 25032 ft 383 kts 323°
2026-05-01 12:34 28.00382 49.10880 24551 ft 393 kts 323°
2026-05-01 12:35 28.02801 49.09280 24228 ft 401 kts 323°
2026-05-01 12:35 28.05211 49.07697 23971 ft 398 kts 323°
2026-05-01 12:35 28.07560 49.06156 23493 ft 396 kts 323°
2026-05-01 12:35 28.09968 49.04571 22498 ft 403 kts 323°
2026-05-01 12:36 28.12395 49.02976 21823 ft 401 kts 323°
2026-05-01 12:36 28.14783 49.01409 21478 ft 391 kts 323°
2026-05-01 12:36 28.17107 48.99885 21054 ft 383 kts 323°
2026-05-01 12:36 28.19300 48.98442 20599 ft 377 kts 323°
2026-05-01 12:37 28.21547 48.96961 20134 ft 372 kts 323°
2026-05-01 12:37 28.23770 48.95494 19676 ft 368 kts 323°
2026-05-01 12:37 28.25968 48.94043 19223 ft 363 kts 323°
2026-05-01 12:37 28.28145 48.92606 18746 ft 360 kts 322°
2026-05-01 12:38 28.30299 48.91184 18324 ft 356 kts 322°
2026-05-01 12:38 28.32425 48.89779 17860 ft 352 kts 322°
2026-05-01 12:38 28.34525 48.88390 17422 ft 347 kts 322°
2026-05-01 12:38 28.36583 48.87027 16996 ft 342 kts 322°
2026-05-01 12:39 28.38624 48.85675 16575 ft 337 kts 322°
2026-05-01 12:39 28.40634 48.84343 16161 ft 333 kts 322°
2026-05-01 12:39 28.42623 48.83025 15754 ft 329 kts 322°
2026-05-01 12:39 28.44592 48.81718 15348 ft 325 kts 322°
2026-05-01 12:40 28.46598 48.80375 14947 ft 350 kts 323°
2026-05-01 12:40 28.48742 48.78936 14517 ft 364 kts 323°
2026-05-01 12:40 28.50941 48.77474 14064 ft 367 kts 324°
2026-05-01 12:40 28.53138 48.76022 13636 ft 364 kts 324°
2026-05-01 12:41 28.55300 48.74579 13168 ft 356 kts 322°
2026-05-01 12:41 28.57243 48.72931 12756 ft 343 kts 313°
2026-05-01 12:41 28.58888 48.71030 12340 ft 331 kts 306°
2026-05-01 12:41 28.60266 48.68980 12038 ft 321 kts 302°
2026-05-01 12:42 28.61593 48.66975 11664 ft 315 kts 303°
2026-05-01 12:42 28.62903 48.65011 11288 ft 310 kts 303°
2026-05-01 12:42 28.64202 48.63066 10919 ft 305 kts 303°
2026-05-01 12:42 28.65467 48.61169 10694 ft 295 kts 303°
2026-05-01 12:43 28.66680 48.59351 10515 ft 285 kts 303°
2026-05-01 12:43 28.67853 48.57586 10219 ft 279 kts 303°
2026-05-01 12:43 28.69024 48.55822 9984 ft 277 kts 303°
2026-05-01 12:43 28.70192 48.54058 9835 ft 278 kts 303°
2026-05-01 12:44 28.71336 48.52331 9744 ft 275 kts 303°
2026-05-01 12:44 28.72472 48.50620 9665 ft 265 kts 303°
2026-05-01 12:44 28.74618 48.47348 9286 ft 251 kts 302°
2026-05-01 12:45 28.76668 48.44055 9028 ft 253 kts 302°
2026-05-01 12:45 28.77682 48.42426 8762 ft 251 kts 302°
2026-05-01 12:45 28.78688 48.40819 8488 ft 247 kts 302°
2026-05-01 12:46 28.79676 48.39242 8222 ft 243 kts 303°
2026-05-01 12:46 28.80646 48.37696 7962 ft 239 kts 303°
2026-05-01 12:46 28.81593 48.36186 7704 ft 235 kts 303°
2026-05-01 12:46 28.82536 48.34682 7449 ft 231 kts 303°
2026-05-01 12:47 28.83477 48.33180 7192 ft 228 kts 304°
2026-05-01 12:47 28.84401 48.31702 6948 ft 248 kts 304°
2026-05-01 12:47 28.85455 48.30013 6756 ft 266 kts 304°
2026-05-01 12:47 28.86530 48.28296 6723 ft 263 kts 304°
2026-05-01 12:48 28.87578 48.26623 6654 ft 254 kts 305°
2026-05-01 12:48 28.88574 48.25035 6537 ft 238 kts 305°
2026-05-01 12:48 28.89500 48.23556 6406 ft 221 kts 305°
2026-05-01 12:48 28.90368 48.22172 6166 ft 211 kts 304°
2026-05-01 12:49 28.91222 48.20810 5847 ft 206 kts 305°
2026-05-01 12:49 28.92038 48.19505 5536 ft 200 kts 305°
2026-05-01 12:49 28.92837 48.18224 5311 ft 190 kts 306°
2026-05-01 12:49 28.93560 48.17065 5214 ft 170 kts 306°
2026-05-01 12:50 28.94216 48.16014 5041 ft 157 kts 306°
2026-05-01 12:50 28.94848 48.15004 4704 ft 157 kts 306°
2026-05-01 12:50 28.95459 48.14026 4356 ft 159 kts 307°
2026-05-01 12:50 28.96105 48.12993 3978 ft 160 kts 307°
2026-05-01 12:51 28.96771 48.11973 3615 ft 160 kts 313°
2026-05-01 12:51 28.97541 48.11084 3344 ft 154 kts 321°
2026-05-01 12:51 28.99193 48.09601 2597 ft 152 kts 324°
2026-05-01 12:52 29.00021 48.08856 2243 ft 150 kts 324°
2026-05-01 12:52 29.01640 48.07388 2192 ft 149 kts 326°
2026-05-01 12:52 29.02185 48.06901 2202 ft 151 kts 325°
2026-05-01 12:53 29.03817 48.05439 2197 ft 147 kts 324°
2026-05-01 12:53 29.04622 48.04712 2202 ft 147 kts 324°
2026-05-01 12:53 29.05430 48.03979 2196 ft 147 kts 324°
2026-05-01 12:54 29.06241 48.03248 2201 ft 151 kts 326°
2026-05-01 12:54 29.08035 48.02063 2130 ft 146 kts 338°
2026-05-01 12:54 29.08959 48.01582 2078 ft 149 kts 337°
2026-05-01 12:55 29.10864 48.00565 1863 ft 155 kts 338°
2026-05-01 12:55 29.11826 48.00051 1697 ft 151 kts 339°
2026-05-01 12:55 29.12780 47.99541 1521 ft 153 kts 338°
2026-05-01 12:56 29.13742 47.99032 1322 ft 152 kts 337°
2026-05-01 12:56 29.14687 47.98528 1132 ft 152 kts 338°
2026-05-01 12:56 29.15633 47.98026 938 ft 148 kts 339°
2026-05-01 12:56 29.16557 47.97530 754 ft 148 kts 338°
2026-05-01 12:57 29.17479 47.97040 564 ft 146 kts 337°
2026-05-01 12:57 29.19274 47.96082 213 ft 142 kts 337°
2026-05-01 12:57 29.20113 47.95640 164 ft 103 kts 335°
2026-05-01 12:58 29.20465 47.95451 169 ft 46 kts 334°
2026-05-01 12:58 29.20671 47.95343 167 ft 44 kts 336°
2026-05-01 12:58 29.20946 47.95201 164 ft 42 kts 334°
2026-05-01 12:59 29.21422 47.94939 168 ft 35 kts 335°
2026-05-01 12:59 29.21629 47.94829 168 ft 32 kts 335°
2026-05-01 12:59 29.22011 47.94626 164 ft 26 kts 335°
2026-05-01 13:00 29.22154 47.94692 159 ft 0 kts 65°
2026-05-01 13:01 29.22162 47.94714 159 ft 6 kts 65°
2026-05-01 13:01 29.22166 47.94773 159 ft 9 kts 112°
2026-05-01 13:01 29.21988 47.94882 160 ft 15 kts 153°
2026-05-01 13:02 29.21948 47.94981 161 ft 16 kts 75°
2026-05-01 13:07 29.23209 47.96848 164 ft 12 kts 345°
2026-05-01 13:07 29.23301 47.96802 164 ft 17 kts 336°
2026-05-01 13:07 29.23423 47.96737 163 ft 22 kts 335°
2026-05-01 13:08 29.23557 47.96753 163 ft 23 kts 56°
2026-05-01 13:08 29.23560 47.96939 165 ft 27 kts 108°
2026-05-01 13:08 29.23530 47.97124 166 ft 25 kts 73°
2026-05-01 13:08 29.23596 47.97297 166 ft 21 kts 68°
2026-05-01 13:09 29.23643 47.97420 166 ft 11 kts 59°
2026-05-01 13:09 29.23657 47.97440 166 ft 1 kts 45°
2026-05-01 13:09 29.23682 47.97455 166 ft 7 kts 18°
2026-05-01 13:09 29.23743 47.97442 166 ft 12 kts 337°
2026-05-01 13:10 29.23821 47.97390 166 ft 14 kts 306°
2026-05-01 13:10 29.23821 47.97343 166 ft 0 kts 246°
2026-05-01 13:10 29.23815 47.97333 166 ft 3 kts 242°
2026-05-01 13:10 29.23806 47.97311 166 ft 0 kts 246°
2026-05-01 13:11 29.23803 47.97302 166 ft 2 kts 246°
2026-05-01 13:11 29.23801 47.97297 166 ft 0 kts 246°